Regional Weather Roundup
Issued by NWS Little Rock, AR

Home | Current Version | Previous Version | Text Only | Print | Product List | Glossary On
Versions: 1 2 3 4 5 6 7 8 9 10 11 12 13 14 15 16 17 18 19 20 21 22 23 24 25 26 27 28 29 30 31 32
000
ASUS44 KLZK 192005
RWRLZK

WEATHER ROUNDUP FOR ARKANSAS
NATIONAL WEATHER SERVICE LITTLE ROCK AR
300 PM CDT THU OCT 19 2017

NOTE: "FAIR" INDICATES FEW OR NO CLOUDS BELOW 12,000 FEET WITH NO
SIGNIFICANT WEATHER AND/OR OBSTRUCTIONS TO VISIBILITY.

ARZ001-003-010-029-192100-
NORTHWEST ARKANSAS

CITY           SKY/WX    TMP DP  RH WIND       PRES   REMARKS
FAYETTEVILLE   FAIR      76  51  41 S6        30.16F
FORT SMITH     FAIR      79  52  38 CALM      30.14F
HARRISON       FAIR      80  42  25 S8        30.17F
BENTONVILLE    FAIR      76  50  40 VRB6      30.18F
ROGERS         FAIR      76  51  41 S6        30.17F
SILOAM SPGS    FAIR      74  53  48 S12       30.16F
HIGHFILL       FAIR      76  50  40 S3        30.16F
SPRINGDALE     SUNNY     77  50  38 SW6       30.18F
$$

ARZ004-005-016-192100-
NORTH CENTRAL ARKANSAS

CITY           SKY/WX    TMP DP  RH WIND       PRES   REMARKS
BATESVILLE     FAIR      79  52  38 S6        30.17F
FLIPPIN        FAIR      82  48  30 SE5       30.16F
MTN HOME       FAIR      81  47  30 S7        30.16F
$$

ARZ040-041-192100-
WEST CENTRAL ARKANSAS

CITY           SKY/WX    TMP DP  RH WIND       PRES   REMARKS
MENA           FAIR      81  52  36 CALM      30.16F
$$

ARZ009-017-025-026-028-192100-
NORTHEAST ARKANSAS

CITY           SKY/WX    TMP DP  RH WIND       PRES   REMARKS
CORNING        FAIR      79  55  44 VRB7G13   30.18F
JONESBORO      FAIR      79  53  40 VRB3      30.18F
NEWPORT        FAIR      78  52  40 S9        30.18F
WALNUT RIDGE   FAIR      79  51  37 SE10      30.17F
BLYTHEVILLE    FAIR      77  52  41 S7        30.20F
$$

ARZ022-023-033-042-044-192100-
CENTRAL ARKANSAS

CITY           SKY/WX    TMP DP  RH WIND       PRES   REMARKS
LITTLE ROCK    PTSUNNY   78  53  41 NE6       30.17F
JACKSONVILLE   FAIR      80  52  36 SE6       30.16F
SEARCY         FAIR      78  55  44 SE5       30.18F
HOT SPRINGS    FAIR      77  53  43 SE5       30.17F
RUSSELLVILLE   FAIR      79  52  38 VRB3      30.15F
CLINTON        FAIR      77  55  47 SE5       30.17F
$$

ARZ036-192100-
EAST ARKANSAS

CITY           SKY/WX    TMP DP  RH WIND       PRES   REMARKS
WEST MEMPHIS   FAIR      75  49  39 SE5       30.19F
$$

ARZ050-053-066-070-073-192100-
SOUTHWEST ARKANSAS

CITY           SKY/WX    TMP DP  RH WIND       PRES   REMARKS
ARKADELPHIA    FAIR      78  55  44 CALM      30.17F
CAMDEN         FAIR      84  52  32 CALM      30.15F
TEXARKANA      FAIR      78  51  38 VRB3      30.15F
EL DORADO      FAIR      77  57  50 E8        30.17F
DE QUEEN       FAIR      79  56  45 E3        30.12F
$$

ARZ056-057-069-192100-
SOUTHEAST ARKANSAS

CITY           SKY/WX    TMP DP  RH WIND       PRES   REMARKS
PINE BLUFF     FAIR      79  50  36 E6        30.17F
STUTTGART      FAIR      79  52  38 E7        30.18F
MONTICELLO     FAIR      77  53  43 VRB3      30.18F

$$






USA.gov is the U.S. government's official web portal to all federal, state and local government web resources and services.